FW8536 Weather Reports


time (UTC)temp
F
wind
direction
speed
knots
gust
knots
rain 1hr
in
rain 24hr
in
rain mn
in
humidity
%
barometer
mb
20260906214502 91 360 0.0 7.8 0.00 0.02 0.00 42 994.2
20260906214100 91 32 0.9 7.8 0.00 0.02 0.00 42 994.3
20260906213502 91 33 3.5 10.4 0.00 0.02 0.00 42 994.2
20260906213101 91 360 6.1 9.6 0.00 0.02 0.00 42 994.3
20260906212602 91 360 5.2 8.7 0.00 0.02 0.00 42 994.2
20260906212101 91 360 2.6 6.1 0.00 0.02 0.00 42 994.5
20260906211604 91 360 4.3 6.1 0.00 0.02 0.00 42 994.4
20260906211058 91 346 2.6 7.0 0.00 0.02 0.00 42 994.5
20260906210556 91 19 4.3 7.0 0.00 0.02 0.00 43 994.5
20260906205553 90 360 4.3 8.7 0.00 0.02 0.00 44 994.8
20260906204602 89 336 3.5 11.3 0.00 0.02 0.00 45 994.9
20260906204051 89 360 5.2 11.3 0.00 0.02 0.00 44 994.9
20260906203550 89 360 5.2 9.6 0.00 0.02 0.00 45 995.1
20260906203049 89 360 0.9 6.1 0.00 0.02 0.00 46 995.2
20260906202547 88 360 3.5 8.7 0.00 0.02 0.02 48 995.3
20260906202047 88 360 2.6 9.6 0.00 0.02 0.02 48 995.3
20260906201553 89 360 6.1 9.6 0.00 0.02 0.02 47 995.4
20260906201046 88 360 4.3 12.2 0.00 0.02 0.02 48 995.5
20260906200543 88 225 6.1 12.2 0.00 0.02 0.02 49 995.4
20260906200044 87 246 5.2 9.6 0.00 0.02 0.02 52 995.5
20260906195543 86 261 2.6 11.3 0.00 0.02 0.02 52 995.6
20260906194543 86 209 0.9 7.0 0.00 0.02 0.02 55 995.6
20260906194043 85 183 3.5 10.4 0.00 0.02 0.02 56 995.7
20260906193543 85 360 5.2 13.9 0.00 0.02 0.02 56 995.9
20260906193043 85 360 9.6 13.9 0.00 0.02 0.02 54 996.1
20260906192543 85 360 3.5 12.2 0.00 0.02 0.02 57 996.1
20260906192045 84 172 5.2 12.2 0.00 0.02 0.02 57 996.4
20260906191559 84 208 4.3 11.3 0.00 0.02 0.02 58 996.5
20260906191042 84 360 6.1 12.2 0.00 0.02 0.02 58 996.5
20260906190543 83 229 8.7 13.9 0.00 0.02 0.02 58 996.6
20260906190042 84 225 7.8 13.9 0.00 0.02 0.02 57 996.7
20260906185542 83 360 3.5 11.3 0.00 0.02 0.02 59 996.7
20260906184545 83 360 8.7 11.3 0.00 0.02 0.02 59 996.8
20260906184045 82 175 7.0 10.4 0.00 0.02 0.02 62 996.8
20260906183541 81 360 4.3 12.2 0.00 0.02 0.02 62 996.8
20260906183042 80 360 4.3 13.0 0.00 0.02 0.02 63 996.9
20260906182541 80 222 6.1 10.4 0.00 0.02 0.02 66 997.1
20260906182042 79 360 6.1 9.6 0.00 0.02 0.02 69 997.0
20260906181542 79 360 5.2 9.6 0.00 0.02 0.02 69 997.1
20260906181041 77 229 2.6 9.6 0.00 0.02 0.02 74 997.4
20260906180543 77 360 7.0 9.6 0.00 0.02 0.02 73 997.4
20260906180059 77 360 0.0 8.7 0.00 0.02 0.02 73 997.6
20260906175541 77 360 5.2 11.3 0.00 0.02 0.02 75 997.5
20260906174552 76 360 6.1 8.7 0.00 0.02 0.02 76 997.6
20260906174040 77 360 4.3 8.7 0.00 0.02 0.02 75 997.6
20260906173539 76 360 1.7 7.8 0.00 0.02 0.02 77 997.6
20260906173040 76 360 4.3 7.8 0.00 0.02 0.02 77 997.7
20260906172539 76 221 1.7 7.8 0.00 0.02 0.02 79 997.7
20260906172039 76 360 4.3 7.0 0.00 0.02 0.02 79 997.8
20260906171539 75 360 3.5 7.0 0.00 0.02 0.02 80 997.6
20260906171040 75 186 1.7 8.7 0.00 0.02 0.02 81 997.7
20260906170539 74 360 5.2 8.7 0.00 0.02 0.02 83 997.6
20260906170039 73 360 1.7 8.7 0.00 0.02 0.02 84 997.8
20260906165538 73 235 5.2 8.7 0.00 0.02 0.02 85 997.7
20260906164540 72 259 4.3 7.8 0.00 0.02 0.02 88 997.6
20260906164040 71 238 3.5 6.1 0.00 0.02 0.02 89 997.5
20260906163539 70 290 0.0 3.5 0.00 0.02 0.02 92 997.4
20260906163039 70 290 0.0 4.3 0.00 0.02 0.02 93 997.6
20260906162540 69 290 0.9 5.2 0.00 0.02 0.02 94 997.6
20260906162043 69 360 2.6 5.2 0.00 0.02 0.02 95 997.3
20260906161539 68 253 3.5 6.1 0.00 0.02 0.02 96 997.3
20260906161038 68 360 2.6 6.1 0.00 0.02 0.02 97 997.1
20260906160539 67 306 2.6 5.2 0.00 0.02 0.02 97 997.0
20260906160039 67 360 0.9 5.2 0.00 0.02 0.02 96 997.0
20260906155539 67 360 3.5 7.0 0.00 0.02 0.02 96 996.8
20260906154539 67 82 5.2 7.8 0.00 0.02 0.02 96 997.6
20260906154038 67 84 4.3 8.7 0.00 0.02 0.02 96 997.8
20260906153537 67 85 4.3 9.6 0.00 0.02 0.02 96 997.8
20260906153057 67 360 4.3 10.4 0.00 0.02 0.02 96 997.6
20260906152538 67 360 6.1 8.7 0.00 0.02 0.02 97 997.7
20260906152037 67 19 3.5 11.3 0.01 0.02 0.02 97 997.7
20260906151551 67 360 6.1 11.3 0.01 0.02 0.02 97 997.3
20260906151036 67 360 7.0 11.3 0.01 0.02 0.02 97 997.2
20260906150537 67 26 7.0 13.9 0.02 0.02 0.02 97 997.2
20260906150037 67 11 10.4 13.9 0.02 0.02 0.02 97 997.2
20260906145536 67 22 8.7 13.9 0.02 0.02 0.02 97 997.0
20260906145138 67 360 7.0 12.2 0.02 0.02 0.02 97 996.9
20260906144542 67 51 6.1 12.2 0.02 0.02 0.02 97 997.3
20260906144037 67 30 7.8 12.2 0.02 0.02 0.02 97 997.3
20260906143539 66 355 7.0 15.6 0.02 0.02 0.02 97 997.1
20260906143044 66 321 10.4 15.6 0.02 0.02 0.02 97 996.9
20260906142537 66 360 9.6 13.0 0.02 0.02 0.02 97 996.9
20260906142037 66 17 10.4 15.6 0.01 0.01 0.01 97 996.8
20260906141540 66 38 7.8 18.2 0.01 0.01 0.01 97 996.9
20260906141036 66 16 12.2 18.2 0.01 0.01 0.01 97 996.1
20260906140535 66 5 10.4 15.6 0.00 0.00 0.00 97 996.8
20260906140036 66 28 6.1 8.7 0.00 0.00 0.00 97 997.8
20260906135534 66 360 5.2 8.7 0.00 0.00 0.00 97 997.9
20260906134547 66 360 5.2 7.8 0.00 0.00 0.00 97 998.1
20260906134034 66 65 3.5 7.8 0.00 0.00 0.00 97 998.5
20260906133533 66 360 5.2 7.8 0.00 0.00 0.00 97 998.5
20260906133037 66 360 5.2 7.8 0.00 0.00 0.00 97 998.7
20260906132533 66 360 4.3 8.7 0.00 0.00 0.00 97 998.7
20260906132031 66 360 6.1 11.3 0.00 0.00 0.00 97 998.5
20260906131532 66 360 7.0 11.3 0.00 0.00 0.00 96 998.3
20260906131031 66 360 7.0 12.2 0.00 0.00 0.00 96 998.3
20260906130531 66 360 9.6 12.2 0.00 0.00 0.00 97 998.1
20260906130033 66 360 7.8 13.0 0.00 0.00 0.00 97 998.5
20260906125530 66 360 9.6 13.0 0.00 0.00 0.00 97 998.4
20260906124529 66 360 8.7 12.2 0.00 0.00 0.00 96 998.2
20260906124028 66 360 8.7 11.3 0.00 0.00 0.00 96 998.2
20260906123526 65 360 8.7 10.4 0.00 0.00 0.00 97 997.6
20260906123045 65 360 6.1 9.6 0.00 0.00 0.00 96 997.7
20260906122526 65 360 7.0 9.6 0.00 0.00 0.00 96 997.3
20260906122026 65 360 4.3 11.3 0.00 0.00 0.00 96 997.6
20260906121527 65 360 7.8 12.2 0.00 0.00 0.00 96 997.4
20260906121025 65 360 8.7 10.4 0.00 0.00 0.00 96 997.4
20260906120525 65 360 7.8 11.3 0.00 0.00 0.00 96 997.4
20260906120023 65 360 7.0 10.4 0.00 0.00 0.00 96 997.4
20260906115523 65 360 7.8 10.4 0.00 0.00 0.00 96 997.5
20260906114525 65 360 5.2 7.8 0.00 0.00 0.00 96 998.1
20260906114024 65 360 5.2 7.8 0.00 0.00 0.00 96 998.0
20260906113523 65 360 5.2 7.0 0.00 0.00 0.00 96 998.0
20260906113024 65 360 3.5 7.0 0.00 0.00 0.00 96 998.3
20260906112526 65 360 4.3 7.8 0.00 0.00 0.00 96 998.1
20260906112023 65 360 6.1 7.8 0.00 0.00 0.00 96 998.0
20260906111527 65 360 4.3 7.0 0.00 0.00 0.00 96 998.0
20260906111022 65 360 5.2 7.0 0.00 0.00 0.00 96 998.1
20260906110522 65 360 2.6 5.2 0.00 0.00 0.00 96 998.3
20260906110021 65 360 2.6 5.2 0.00 0.00 0.00 96 998.2
20260906105522 65 360 3.5 6.1 0.00 0.00 0.00 95 998.0
20260906104521 66 360 4.3 7.8 0.00 0.00 0.00 95 997.8
20260906104022 66 355 5.2 7.8 0.00 0.00 0.00 95 997.7
20260906103519 66 360 5.2 7.0 0.00 0.00 0.00 95 997.7
20260906103019 66 355 5.2 7.0 0.00 0.00 0.00 95 997.7
20260906102519 66 5 5.2 7.8 0.00 0.00 0.00 95 997.5
20260906102018 66 360 5.2 7.8 0.00 0.00 0.00 95 997.5
20260906101526 66 360 5.2 7.0 0.00 0.00 0.00 95 997.6
20260906101018 66 360 5.2 7.8 0.00 0.00 0.00 95 997.5
20260906100518 66 360 5.2 7.8 0.00 0.00 0.00 95 997.6
20260906100019 66 360 4.3 7.0 0.00 0.00 0.00 95 997.6
20260906095517 66 360 5.2 7.8 0.00 0.00 0.00 95 997.6
20260906094518 66 348 6.1 8.7 0.00 0.00 0.00 94 997.4
20260906094018 66 360 6.1 8.7 0.00 0.00 0.00 94 997.4
20260906093522 66 360 5.2 8.7 0.00 0.00 0.00 94 997.3
20260906093033 66 360 6.1 8.7 0.00 0.00 0.00 94 997.3
20260906092517 66 360 6.1 8.7 0.00 0.00 0.00 94 997.1
20260906092022 66 348 5.2 7.8 0.00 0.00 0.00 94 997.4
20260906091517 67 360 5.2 7.8 0.00 0.00 0.00 94 997.5
20260906091016 67 360 6.1 7.8 0.00 0.00 0.00 94 997.4
20260906090516 66 360 5.2 8.7 0.00 0.00 0.00 94 997.4
20260906090035 67 360 6.1 7.8 0.00 0.00 0.00 93 997.4
20260906085515 67 360 5.2 7.8 0.00 0.00 0.00 93 997.5
20260906084514 67 360 6.1 8.7 0.00 0.00 0.00 93 997.6
20260906084014 67 9 7.0 8.7 0.00 0.00 0.00 93 997.4
20260906083513 67 360 6.1 9.6 0.00 0.00 0.00 93 997.4
20260906083012 67 360 7.0 9.6 0.00 0.00 0.00 93 997.5
20260906082512 67 360 7.0 9.6 0.00 0.00 0.00 93 997.5
20260906082014 67 360 7.0 8.7 0.00 0.00 0.00 93 997.4
20260906081512 67 360 7.0 8.7 0.00 0.00 0.00 93 997.5
20260906081011 67 360 6.1 7.8 0.00 0.00 0.00 92 997.5
20260906080511 67 360 5.2 7.8 0.00 0.00 0.00 92 997.7
20260906080010 67 360 5.2 7.8 0.00 0.00 0.00 92 997.7
20260906075509 67 360 5.2 7.8 0.00 0.00 0.00 92 997.8
20260906074508 68 360 6.1 7.8 0.00 0.00 0.00 91 997.7
20260906074007 68 360 6.1 7.8 0.00 0.00 0.00 91 997.7
20260906073509 68 360 6.1 7.8 0.00 0.00 0.00 91 997.7
20260906073006 68 360 5.2 8.7 0.00 0.00 0.00 91 997.8
20260906072506 68 360 6.1 9.6 0.00 0.00 0.00 91 997.8
20260906072010 68 360 7.0 9.6 0.00 0.00 0.00 91 997.8
20260906071505 68 360 7.0 8.7 0.00 0.00 0.00 91 997.8
20260906071008 68 360 6.1 8.7 0.00 0.00 0.00 91 997.8
20260906070507 68 360 6.1 8.7 0.00 0.00 0.00 91 997.9
20260906070004 68 360 6.1 7.8 0.00 0.00 0.00 91 998.0
20260906065507 68 360 6.1 7.8 0.00 0.00 0.00 90 998.2
20260906064504 69 360 6.1 8.7 0.00 0.00 0.00 90 998.2
20260906064003 69 360 5.2 7.8 0.00 0.00 0.00 89 998.2
20260906063501 69 360 5.2 8.7 0.00 0.00 0.00 89 998.2
20260906063001 69 360 6.1 8.7 0.00 0.00 0.00 89 998.2
20260906062502 69 360 7.0 9.6 0.00 0.00 0.00 89 998.1
20260906062100 69 360 7.0 9.6 0.00 0.00 0.00 88 998.1
20260906061659 70 360 7.0 9.6 0.00 0.00 0.00 88 998.2
20260906061102 70 360 7.0 11.3 0.00 0.00 0.00 88 998.2
20260906060557 70 360 7.8 12.2 0.00 0.00 0.00 88 998.2
20260906060058 70 360 7.8 12.2 0.00 0.00 0.00 88 998.0
20260906055557 70 360 7.8 11.3 0.00 0.00 0.00 88 998.2
20260906055156 70 360 7.8 10.4 0.00 0.00 0.00 87 998.2
20260906054555 70 360 7.8 11.3 0.00 0.00 0.00 87 998.2
20260906054058 70 360 8.7 12.2 0.00 0.00 0.00 87 998.0
20260906053553 70 360 7.8 11.3 0.00 0.00 0.00 87 998.1
20260906053053 70 360 7.8 10.4 0.00 0.00 0.00 86 998.0
20260906052558 71 360 7.8 10.4 0.00 0.00 0.00 86 998.0
20260906052052 71 360 7.0 10.4 0.00 0.00 0.00 85 997.9
20260906051600 71 360 7.8 10.4 0.00 0.00 0.00 85 998.0
20260906051052 71 360 7.0 10.4 0.00 0.00 0.00 85 998.0
20260906050550 71 360 7.8 11.3 0.00 0.00 0.00 84 998.0
20260906045552 72 360 7.8 11.3 0.00 0.00 0.00 84 997.9
20260906045150 72 360 7.8 12.2 0.00 0.00 0.00 83 997.9
20260906044553 72 360 8.7 12.2 0.00 0.00 0.00 83 998.2
20260906044054 72 360 7.8 11.3 0.00 0.00 0.00 83 998.0
20260906043550 72 360 7.8 11.3 0.00 0.00 0.00 83 998.1
20260906043058 72 360 7.0 11.3 0.00 0.00 0.00 82 998.0
20260906042549 72 360 7.8 11.3 0.00 0.00 0.00 82 998.0
20260906042050 71 360 7.8 11.3 0.00 0.00 0.00 82 997.9
20260906041550 71 360 7.8 11.3 0.00 0.00 0.00 82 997.8
20260906041049 71 360 7.8 11.3 0.00 0.00 0.00 81 997.9
20260906040548 72 360 7.8 11.3 0.00 0.00 0.00 81 998.0
20260906040048 72 360 8.7 11.3 0.00 0.00 0.00 80 997.9
20260906035551 72 360 8.7 11.3 0.00 0.00 0.00 80 997.9
20260906035146 72 360 9.6 11.3 0.00 0.00 0.00 79 997.9
20260906034606 72 360 9.6 11.3 0.00 0.00 0.00 79 998.0
20260906034046 72 360 8.7 11.3 0.00 0.00 0.00 79 997.9
20260906033546 72 360 7.8 11.3 0.00 0.00 0.00 78 997.9
20260906033046 72 360 7.8 9.6 0.00 0.00 0.00 78 997.9
20260906032546 72 360 7.0 10.4 0.00 0.00 0.00 78 998.0
20260906032045 73 360 7.8 10.4 0.00 0.00 0.00 77 998.0
20260906031549 73 360 7.8 10.4 0.00 0.00 0.00 76 998.1
20260906031044 73 360 8.7 10.4 0.00 0.00 0.00 76 997.9
20260906030544 73 360 7.8 10.4 0.00 0.00 0.00 76 998.1
20260906030044 73 360 7.8 10.4 0.00 0.00 0.00 75 998.0
20260906025544 74 360 7.0 9.6 0.00 0.00 0.00 75 998.1
20260906025144 73 360 7.8 9.6 0.00 0.00 0.00 75 998.1
20260906024542 73 360 7.8 9.6 0.00 0.00 0.00 75 998.1
20260906024041 73 360 6.1 8.7 0.00 0.00 0.00 75 998.1
20260906023541 73 360 6.1 7.8 0.00 0.00 0.00 75 998.0
20260906023040 73 360 5.2 7.8 0.00 0.00 0.00 75 998.0
20260906022539 73 360 6.1 7.8 0.00 0.00 0.00 74 997.9
20260906022038 74 300 5.2 7.8 0.00 0.00 0.00 74 997.9
20260906021538 74 360 6.1 7.8 0.00 0.00 0.00 74 997.6
20260906021039 74 360 5.2 8.7 0.00 0.00 0.00 73 997.6
20260906020535 74 360 6.1 8.7 0.00 0.00 0.00 73 997.5
20260906020034 74 311 6.1 7.8 0.00 0.00 0.00 72 997.4
20260906015534 75 360 6.1 7.8 0.00 0.00 0.00 71 997.3
20260906015133 75 360 7.0 8.7 0.00 0.00 0.00 70 997.4
20260906014533 76 360 7.0 8.7 0.00 0.00 0.00 70 997.2
20260906014030 76 360 6.1 8.7 0.00 0.00 0.00 69 997.1
20260906013529 77 360 6.1 8.7 0.00 0.00 0.00 68 997.1
20260906013037 78 325 5.2 10.4 0.00 0.00 0.00 67 996.9
20260906012526 78 360 7.0 10.4 0.00 0.00 0.00 66 996.9
20260906012026 79 360 7.0 11.3 0.00 0.00 0.00 66 996.7
20260906011524 79 360 7.0 12.2 0.00 0.00 0.00 65 996.7
20260906011025 80 315 8.7 12.2 0.00 0.00 0.00 64 996.6
20260906010522 80 334 7.0 11.3 0.00 0.00 0.00 64 996.6
20260906010023 80 355 7.0 11.3 0.00 0.00 0.00 63 996.6
20260906005519 81 346 7.8 10.4 0.00 0.00 0.00 62 996.5
20260906005121 82 5 7.0 12.2 0.00 0.00 0.00 62 996.4
20260906004519 82 360 7.0 12.2 0.00 0.00 0.00 62 996.3
20260906004019 82 15 8.7 13.0 0.00 0.00 0.00 62 996.3
20260906003517 82 360 8.7 13.0 0.00 0.00 0.00 61 996.2
20260906003016 83 26 8.7 13.9 0.00 0.00 0.00 60 996.1
20260906002514 83 360 8.7 13.9 0.00 0.00 0.00 60 996.1
20260906002015 84 360 8.7 12.2 0.00 0.00 0.00 59 996.1
20260906001512 84 360 8.7 13.0 0.00 0.00 0.00 59 996.3
20260906001012 84 13 8.7 13.0 0.00 0.00 0.00 59 996.0
20260906000511 84 360 7.8 13.0 0.00 0.00 0.00 58 996.1
20260906000010 85 15 9.6 13.0 0.00 0.00 0.00 57 995.9
20260905235508 85 360 8.7 12.2 0.00 0.00 0.00 57 995.9
20260905235108 85 360 9.6 13.0 0.00 0.00 0.00 57 995.9
20260905234511 85 344 9.6 13.0 0.00 0.00 0.00 56 996.0
20260905234008 86 22 8.7 13.0 0.00 0.00 0.00 56 995.8
20260905233512 86 360 7.8 13.0 0.00 0.00 0.00 55 995.8
20260905233008 87 17 8.7 13.0 0.00 0.00 0.00 54 995.6
20260905232506 87 360 7.0 11.3 0.00 0.00 0.00 53 995.7
20260905232006 87 346 6.1 11.3 0.00 0.00 0.00 53 995.8
20260905231513 87 360 4.3 10.4 0.00 0.00 0.00 54 995.7
20260905231005 87 360 7.8 12.2 0.00 0.00 0.00 54 995.8
20260905230505 87 360 6.1 10.4 0.00 0.00 0.00 54 995.7
20260905230005 87 26 4.3 11.3 0.00 0.00 0.00 54 995.7
20260905225507 87 22 7.8 11.3 0.00 0.00 0.00 54 995.6
20260905225105 87 360 8.7 11.3 0.00 0.00 0.00 54 995.6
20260905224504 87 21 8.7 11.3 0.00 0.00 0.00 54 995.6
20260905224004 87 15 7.0 11.3 0.00 0.00 0.00 53 995.6
20260905223503 87 51 3.5 11.3 0.00 0.00 0.00 54 995.5
20260905223004 88 360 7.0 11.3 0.00 0.00 0.00 53 995.6
20260905222504 88 360 7.0 15.6 0.00 0.00 0.00 53 995.6
20260905222006 87 351 9.6 15.6 0.00 0.00 0.00 54 995.5
20260905221505 87 360 6.1 10.4 0.00 0.00 0.00 54 995.5
20260905221002 87 355 6.1 10.4 0.00 0.00 0.00 54 995.6
20260905220502 87 360 5.2 10.4 0.00 0.00 0.00 54 995.7
20260905220002 87 19 6.1 13.0 0.00 0.00 0.00 54 995.7
20260905215502 87 18 7.8 13.9 0.00 0.00 0.00 54 995.7
20260905215001 87 348 8.7 17.4 0.00 0.00 0.00 54 995.8